GSAT0225 (GALILEO 29)

Last updated on Thu Nov 21 2024 00:02:31 GMT+0000 (Coordinated Universal Time)

1 59598U 24079A 24324.55307038 .00000035 00000+0 00000+0 0 9990 2 59598 54.7827 117.1589 0002524 161.2148 196.6844 1.70474741 3511
UTC large
Height (km)
Speed (km/s)
/
Latitude / Longitude
Inclination (degrees)
Orbital Period (minutes)
Azimuth
Elevation
Range (km)
Doppler Factor

Next 0 passes for location: London (51.5072 / 0.1276)

Sorry there are no passes over London.